2017-008CD

Last updated on Thu Mar 02 2017 00:15:03 GMT+0000 (Greenwich Mean Time)

1 42023U 17008CD 17060.60656722 .00001496 00000-0 69388-4 0 9993 2 42023 97.5120 122.2211 0007676 204.1582 155.9275 15.21624483 2176
UTC large
Height (km)
Speed (km/s)
/
Latitude / Longitude
Inclination (degrees)
Orbital Period (minutes)
Azimuth
Elevation
Range (km)
Doppler Factor

Next 0 passes for location: London (51.5072 / 0.1276)

Sorry there are no passes over London.